This is the latest recevied weather packets stored in our database for station/object SA6BET-2. If no packets are shown the sender has not sent any weather packets the latest 10 day(s).
| Time | Temp. | Humidity | Pressure | Rain* | Wind** | Luminosity | Snow |
|---|---|---|---|---|---|---|---|
| 1787598127 | 27.78° C | 100% | 1013.4 hPa | - | - | - | - |
| 1787597226 | 27.78° C | 100% | 1013.2 hPa | - | - | - | - |
| 1787596334 | 28.33° C | 100% | 1013 hPa | - | - | - | - |
| 1787595434 | 28.89° C | 100% | 1012.9 hPa | - | - | - | - |
| 1787594534 | 29.44° C | 100% | 1012.9 hPa | - | - | - | - |
| 1787593634 | 30° C | 100% | 1012.9 hPa | - | - | - | - |
| 1787592734 | 30.56° C | 100% | 1013.1 hPa | - | - | - | - |
| 1787591833 | 30.56° C | 100% | 1013.1 hPa | - | - | - | - |
| 1787590933 | 31.11° C | 100% | 1013.1 hPa | - | - | - | - |
| 1787590033 | 31.67° C | 100% | 1013.3 hPa | - | - | - | - |
| 1787589133 | 31.67° C | 100% | 1013.5 hPa | - | - | - | - |
| 1787588233 | 32.78° C | 100% | 1013.6 hPa | - | - | - | - |
| 1787587332 | 33.89° C | 100% | 1013.8 hPa | - | - | - | - |
| 1787586432 | 33.89° C | 100% | 1014 hPa | - | - | - | - |
| 1787585532 | 33.89° C | 100% | 1014.1 hPa | - | - | - | - |
| 1787584632 | 33.89° C | 100% | 1014.2 hPa | - | - | - | - |
| 1787583731 | 35° C | 100% | 1014.2 hPa | - | - | - | - |
| 1787582831 | 35° C | 100% | 1014.5 hPa | - | - | - | - |
| 1787581931 | 36.67° C | 100% | 1014.7 hPa | - | - | - | - |
| 1787581031 | 35.56° C | 100% | 1014.9 hPa | - | - | - | - |
| 1787580131 | 36.11° C | 100% | 1015.2 hPa | - | - | - | - |
| 1787579231 | 35.56° C | 100% | 1015.3 hPa | - | - | - | - |
| 1787578330 | 36.11° C | 100% | 1015.5 hPa | - | - | - | - |
| 1787577430 | 35.56° C | 100% | 1015.7 hPa | - | - | - | - |
| 1787576530 | 33.33° C | 100% | 1015.8 hPa | - | - | - | - |
* Rain since midnight (hover to see other rain measurements)
** Current wind speed in m/s (hover to see current wind gust speed)